Theta_e
322 322 326 327 327 328 329 330 330 330 330 330 329 326 324 322 322 312 305 314 317 327 322 308 308 306 305 302 302 298 291 288 291 291 293 295 295 296 298 299 301 305 313 317 324
321 321 324 326 326 327 328 329 329 329 329 328 327 326 324 322 310 306 317 325 328 330 309 303 303 304 301 301 298 294 290 292 296 295 294 296 296 297 298 299 302 310 316 322 326
321 321 321 326 325 326 327 328 328 328 328 327 326 325 323 318 301 302 322 325 327 328 308 307 309 303 300 300 297 295 291 294 294 296 298 296 295 296 297 295 302 308 315 320 324
320 321 321 325 325 326 326 327 327 327 327 326 325 324 322 309 300 304 323 326 329 319 307 304 303 301 297 297 298 293 297 295 297 297 296 296 296 295 298 299 302 313 321 320 321
318 320 319 323 324 325 326 326 327 326 326 325 324 322 311 300 300 306 322 327 321 309 305 303 300 300 296 297 298 295 294 294 295 296 295 297 294 294 296 297 306 319 320 321 321
314 319 319 318 323 324 324 325 326 326 325 325 323 321 300 293 306 312 317 315 311 306 305 303 302 304 301 299 297 298 294 293 294 295 296 295 292 295 296 299 314 318 318 320 321
314 314 319 318 322 322 323 324 325 325 325 325 323 311 300 299 305 312 314 309 310 306 301 304 305 302 301 298 301 297 294 293 292 293 294 294 291 294 295 300 312 315 317 318 320
313 313 318 318 321 322 322 323 324 324 324 324 320 308 298 304 306 309 306 304 310 307 306 306 304 302 299 300 296 293 294 289 292 293 293 293 290 295 295 299 306 311 314 316 318
313 313 316 318 319 320 321 322 322 323 324 323 309 301 296 311 303 305 303 302 305 304 303 304 302 298 295 290 289 289 285 285 289 292 292 291 290 292 293 295 298 303 309 314 317
313 313 315 318 319 319 320 321 322 321 318 311 309 296 297 298 302 304 301 302 299 300 299 297 296 291 288 287 282 284 284 286 289 289 290 288 290 291 292 294 295 296 300 304 309
311 312 315 318 320 320 319 316 306 303 304 295 296 292 295 300 304 301 302 299 297 295 291 293 287 286 287 289 290 289 288 287 288 290 288 288 289 291 290 289 291 292 293 295 297
311 311 311 318 320 320 316 305 303 303 295 300 299 297 299 301 296 298 302 294 292 287 289 289 284 289 292 291 289 287 285 284 288 290 288 285 288 290 290 291 292 293 291 293 294
310 310 311 316 319 316 310 307 307 306 293 295 299 296 298 299 295 296 300 295 291 287 286 284 288 292 291 288 287 286 285 284 287 288 288 285 284 286 288 289 292 292 294 295 295
309 310 310 309 313 312 306 306 308 302 286 289 293 297 299 299 293 300 301 296 292 288 288 286 290 289 286 286 287 283 288 288 287 285 282 285 279 284 285 287 288 292 294 295 296
308 309 310 310 311 306 307 308 306 299 274 291 293 302 299 294 295 295 299 295 289 288 288 286 286 286 286 287 288 286 289 288 287 283 280 281 280 283 282 285 288 290 293 293 294
307 308 310 307 311 311 308 307 301 284 273 287 293 292 292 293 293 294 296 295 294 290 288 289 290 290 289 289 290 289 286 285 283 281 277 281 280 281 283 287 288 290 290 291 290
307 308 310 308 306 310 307 300 283 277 288 284 286 290 289 287 289 291 290 287 286 282 281 284 285 287 289 286 286 286 283 276 276 276 276 279 278 284 288 289 289 290 290 289 288
306 306 310 307 313 310 304 291 277 282 283 288 288 289 286 289 288 288 289 287 287 285 282 282 279 286 289 286 284 283 284 277 272 273 276 280 277 283 291 292 290 290 289 291 292
305 306 307 308 312 309 295 282 280 283 287 286 287 284 283 288 287 286 288 287 289 287 282 281 281 287 289 290 290 284 282 285 279 271 274 277 281 287 289 289 288 289 288 291 292
299 302 301 308 311 303 290 285 284 289 290 289 282 285 282 284 284 285 285 290 289 289 290 286 282 286 288 290 289 287 290 282 279 271 271 276 277 280 285 287 288 288 289 289 290
298 295 301 308 307 294 284 285 286 291 292 288 284 284 285 284 285 284 285 287 291 288 288 287 286 283 287 285 285 284 282 283 283 279 274 271 277 284 288 288 289 289 289 290 292
294 285 300 304 287 288 285 288 292 290 293 290 290 288 286 287 285 285 284 287 293 291 286 289 285 280 283 286 288 287 285 286 282 277 278 277 279 285 287 288 288 289 289 289 291
290 289 297 298 283 284 291 290 290 290 290 289 288 290 290 287 284 287 287 291 293 292 289 290 282 275 280 285 286 284 284 286 283 281 276 275 278 286 286 288 286 288 288 288 288
289 283 286 288 286 287 288 288 287 292 292 293 290 291 289 287 289 286 287 291 293 293 296 294 284 284 279 282 285 282 284 285 285 279 279 280 281 283 287 287 287 288 288 288 288
285 284 286 282 283 286 290 289 287 287 292 294 290 290 288 285 286 286 289 288 291 294 292 290 279 282 282 283 286 284 284 285 284 286 281 285 283 286 288 288 288 289 290 290 291
282 283 285 286 288 285 288 287 287 288 290 289 288 290 290 287 288 285 288 287 287 288 290 289 279 283 279 283 284 281 285 287 287 287 286 286 284 288 290 287 286 288 289 291 291
287 287 285 287 285 285 285 287 288 291 290 293 292 290 288 290 293 293 294 293 291 289 288 286 281 278 279 282 283 279 283 285 286 288 288 283 288 289 286 286 287 288 288 290 291
Wind_Speed
19 17 23 23 20 19 16 16 14 14 13 13 12 11 8 7 5 2 6 7 6 3 3 1 1 0 2 2 2 3 5 3 5 6 7 5 5 4 1 6 0 4 6 4 16
21 20 21 25 22 20 19 18 18 17 14 12 12 13 11 9 2 5 6 8 9 3 3 6 4 4 3 1 2 5 4 8 4 4 5 7 6 9 5 4 1 1 2 11 17
20 22 16 26 24 22 20 19 17 18 18 16 14 11 10 8 2 9 17 13 11 8 3 5 4 2 5 1 2 3 5 4 2 2 4 4 3 5 8 4 7 9 7 13 16
20 21 16 27 25 23 22 20 19 18 18 17 15 12 11 2 9 2 6 18 10 7 3 5 4 4 4 5 1 2 4 3 3 3 1 7 6 6 7 7 6 10 18 14 15
13 20 16 28 26 24 24 22 21 19 18 18 18 15 6 3 9 2 2 11 8 7 7 6 6 5 7 4 4 1 2 1 3 3 1 6 3 4 7 1 5 10 10 17 15
13 13 15 11 24 25 24 23 22 20 19 18 18 16 6 5 4 4 7 10 7 6 5 5 6 3 7 4 3 4 1 4 4 3 1 6 2 5 5 4 8 11 11 11 14
10 15 16 16 25 25 25 23 22 20 19 19 18 5 3 12 1 4 8 5 7 7 5 4 5 7 6 5 5 2 4 7 4 1 2 1 1 7 2 5 9 10 10 9 10
6 12 14 17 18 24 24 24 22 20 20 18 15 3 5 1 4 4 5 5 5 4 1 4 3 3 3 1 4 4 5 1 5 3 1 5 8 4 5 9 10 8 7 8 11
7 10 15 16 18 21 23 23 22 21 20 20 7 4 5 5 5 5 5 8 7 2 2 4 4 3 2 6 4 1 4 3 9 3 1 4 7 4 3 7 8 9 9 11 10
12 8 20 21 24 26 24 22 21 22 15 7 3 3 7 8 6 6 2 9 6 6 4 4 4 4 1 4 8 6 6 5 12 4 2 3 8 5 1 7 10 9 9 9 10
12 13 20 17 27 30 27 13 12 7 14 8 12 3 8 5 5 4 5 6 4 6 6 2 5 10 6 6 6 5 7 6 4 2 3 7 8 10 5 3 8 9 9 9 13
10 10 14 18 23 30 22 14 13 9 14 2 7 3 3 5 7 5 9 8 6 6 5 4 6 6 8 6 5 3 5 5 1 2 3 3 12 9 5 7 8 11 9 12 9
10 9 12 14 28 25 22 17 11 17 8 1 6 3 5 5 5 12 13 7 8 7 5 7 7 7 7 5 7 5 7 5 4 4 0 1 8 6 6 5 6 8 10 10 16
10 12 11 24 20 20 20 14 15 2 6 5 9 6 3 4 4 4 7 8 6 12 9 5 5 9 5 6 6 6 5 4 5 6 5 4 6 6 4 8 6 11 13 17 15
8 12 16 17 7 19 20 20 12 3 12 13 5 2 5 7 12 5 2 5 10 9 9 9 9 7 6 7 7 8 5 6 3 3 1 2 2 8 2 6 10 14 17 13 12
8 13 17 8 7 20 17 18 5 5 6 11 10 11 10 5 1 7 5 3 6 6 4 7 3 7 12 4 11 7 7 7 5 3 4 7 7 6 5 9 7 6 8 10 9
9 14 9 7 13 16 19 15 7 10 9 9 10 14 18 7 6 13 17 8 10 9 6 3 3 2 4 7 4 4 8 1 2 3 6 1 2 9 7 11 8 8 7 7 5
10 14 11 11 15 15 13 17 9 17 13 5 10 16 13 13 3 7 16 14 7 8 7 12 7 9 5 7 10 6 10 7 7 4 5 3 9 8 13 11 7 8 7 1 3
8 1 4 6 10 15 17 18 16 25 13 12 14 23 6 11 8 9 18 22 16 10 11 8 5 2 4 5 12 6 8 6 8 3 3 6 7 12 9 11 7 7 5 8 6
1 3 6 9 7 16 15 18 6 15 14 20 10 14 20 22 7 13 22 18 16 11 6 8 6 0 3 5 1 11 10 4 2 5 5 5 4 6 7 10 7 7 9 7 5
2 3 2 10 9 16 17 13 5 7 22 14 7 11 15 17 13 10 16 2 16 10 3 5 7 3 5 8 9 4 5 2 5 6 6 2 8 10 14 10 11 10 8 8 9
2 2 2 12 4 10 17 8 6 14 15 5 7 6 18 22 13 18 15 5 16 14 9 1 7 5 8 1 1 4 8 9 8 6 2 3 8 3 10 6 5 6 8 8 8
2 1 2 9 5 12 12 8 8 18 24 11 7 6 6 19 15 15 12 9 20 21 15 8 2 5 5 5 3 7 5 5 6 3 8 7 7 4 5 8 5 7 7 7 7
2 3 2 2 3 7 6 18 11 7 16 7 7 7 14 14 9 15 7 7 17 16 11 7 3 11 15 13 9 5 8 5 7 4 4 15 4 2 4 6 4 3 2 4 6
1 1 1 4 4 4 8 13 17 10 8 7 4 14 15 12 19 5 9 3 14 14 10 8 6 3 2 1 8 7 11 12 10 24 12 24 13 9 10 10 9 6 5 5 7
3 2 1 1 10 7 8 11 23 14 19 22 12 18 17 13 19 15 15 6 14 6 15 4 0 5 2 2 6 1 14 23 29 19 21 13 22 8 9 4 5 6 6 8 8
2 1 2 4 4 9 5 4 23 18 10 26 14 17 18 16 13 12 10 12 15 20 19 9 7 4 9 4 5 9 19 18 14 18 19 18 24 11 7 9 10 10 9 11 11
Wind_Direction
233 243 225 210 210 199 185 181 178 173 177 162 167 157 158 145 120 152 222 209 200 201 108 298 148 59 53 71 57 130 74 181 220 155 233 153 152 166 92 126 336 169 155 208 136
234 237 238 210 203 204 187 183 180 166 162 163 163 157 160 140 148 238 223 217 210 156 147 174 167 146 33 39 340 96 125 206 215 197 229 189 166 167 139 139 239 234 34 126 140
226 235 246 211 201 198 192 184 183 167 158 165 166 160 158 152 150 235 193 212 208 177 255 197 124 146 149 279 240 153 178 210 247 250 237 205 183 179 126 230 207 189 154 146 151
234 232 246 218 198 193 194 185 180 167 161 156 151 155 157 207 200 177 194 197 189 154 216 153 130 154 155 180 177 162 218 212 277 345 191 177 133 182 176 216 187 178 164 151 167
304 223 237 215 194 193 190 191 178 168 164 161 153 144 142 210 254 234 201 173 130 148 203 162 150 139 155 185 135 218 267 241 320 317 227 139 184 211 219 355 108 131 162 171 175
290 239 209 275 196 191 189 188 176 165 163 157 151 152 133 210 236 158 125 133 141 150 179 168 166 139 130 247 183 197 115 317 320 313 280 143 182 139 232 119 124 154 177 183 186
274 306 224 224 200 189 188 183 173 163 161 163 158 143 147 223 252 135 123 165 147 152 156 203 140 177 142 154 206 181 59 345 292 289 295 102 275 225 155 132 163 185 188 188 206
279 287 225 207 205 183 185 179 169 160 159 156 151 92 211 248 135 121 113 104 143 123 136 196 195 117 166 171 75 141 90 25 296 170 283 117 249 264 172 145 187 194 201 208 211
283 281 260 205 208 188 182 174 163 155 150 142 148 168 226 132 164 186 135 142 132 119 109 140 137 161 128 141 93 360 181 152 303 233 146 147 247 229 194 181 194 209 209 215 227
290 319 267 208 206 189 169 152 146 138 129 125 122 159 177 208 161 145 108 122 141 129 98 117 80 157 80 134 194 170 167 194 204 239 223 189 251 260 194 194 215 211 218 215 225
291 283 286 208 184 175 147 148 143 136 176 181 190 207 143 142 107 128 139 93 85 77 152 153 144 201 191 172 164 165 172 193 192 194 168 222 247 253 236 209 234 237 224 226 234
291 296 312 204 185 173 159 173 175 132 162 314 202 293 145 158 117 158 134 120 124 156 123 88 218 202 189 193 157 154 170 212 57 141 141 305 265 248 215 234 215 225 228 231 236
305 270 269 244 174 174 176 167 139 128 133 297 169 182 169 144 129 173 153 129 137 138 159 158 205 173 175 175 157 179 180 180 202 130 186 22 286 269 254 243 238 242 232 235 229
308 305 299 303 180 164 178 161 158 125 98 179 188 242 179 169 105 157 166 136 152 176 127 186 205 159 164 208 149 193 206 159 146 131 215 164 270 269 251 265 236 245 237 239 234
300 288 279 250 165 169 161 159 145 65 158 157 178 115 153 177 135 225 218 74 154 160 135 214 154 143 174 189 162 217 138 161 140 122 121 226 212 266 161 273 261 240 237 241 234
289 279 284 288 198 167 148 141 105 84 210 184 150 168 156 185 184 122 145 52 136 117 89 190 189 158 185 159 169 138 82 53 58 98 251 209 174 257 202 209 246 238 237 245 247
292 287 274 215 164 164 143 138 126 187 143 177 174 168 170 156 136 172 175 173 154 124 170 128 197 158 133 104 78 116 124 29 287 251 222 343 220 242 236 250 226 244 274 291 290
282 305 212 212 153 155 153 156 165 187 184 138 143 153 178 139 151 166 164 181 228 128 139 167 216 164 163 164 159 173 163 155 187 218 223 121 233 243 229 256 263 247 248 298 253
304 258 185 181 177 157 159 170 190 177 152 138 127 158 162 188 134 150 195 193 183 185 145 154 211 358 138 140 154 201 201 160 103 19 59 214 282 301 246 259 235 245 204 213 224
77 226 187 126 185 160 170 185 166 164 128 143 156 180 177 179 151 182 181 201 193 179 139 179 136 233 162 122 180 190 152 165 9 145 247 264 260 234 256 233 206 223 221 221 210
100 266 75 112 205 173 184 184 139 185 148 155 136 165 182 177 189 192 192 257 192 175 126 138 115 219 123 206 167 143 178 133 133 159 173 251 259 220 231 204 206 221 205 198 216
88 207 349 133 270 192 187 183 144 173 154 143 115 107 177 179 179 194 197 194 184 159 151 160 110 152 187 233 256 209 182 182 192 209 246 150 270 254 252 249 208 244 203 209 214
170 242 22 135 204 189 180 212 177 166 180 146 137 158 150 173 188 197 181 211 180 175 165 181 219 88 32 336 225 211 172 177 101 84 202 164 249 338 299 307 230 243 225 213 203
140 187 41 44 132 186 182 189 186 165 181 161 120 117 145 178 213 186 175 170 190 179 136 108 127 178 195 216 130 198 181 157 151 207 171 242 232 258 264 261 263 205 197 202 207
89 273 177 145 173 145 204 176 186 164 171 133 120 167 162 175 196 192 166 113 173 175 158 134 154 124 2 168 161 164 175 181 196 223 189 250 221 207 217 211 219 209 180 193 217
143 187 13 158 136 145 208 196 191 180 162 194 174 183 173 178 190 184 166 164 171 171 183 158 262 112 311 101 72 211 195 196 213 218 243 256 270 161 230 219 235 226 207 225 236
129 109 65 162 117 152 205 229 203 187 210 190 159 172 190 206 179 174 168 163 159 169 178 151 123 96 228 89 66 284 218 206 215 212 226 234 245 168 196 216 220 221 210 217 223